"Pseudo-MPEC" for ZKA8472

Created 2018 May 19 19:18:15 UT using Find_Orb

Click here for an explanation of pseudo-MPECs

 
 Astrometry: 
     ZKA8472  C2018 05 17.23245 12 38 56.71 +04 34 38.7          19.5 GUNEOCPG96
     ZKA8472  C2018 05 17.23771 12 38 58.74 +04 32 10.5          19.7 GUNEOCPG96
     ZKA8472  C2018 05 17.24294 12 39 00.76 +04 29 42.4          19.4 GUNEOCPG96
     ZKA8472  C2018 05 17.24817 12 39 02.81 +04 27 13.6          19.3 GUNEOCPG96
     ZKA8472  C2018 05 17q$Astrometry^yRe]ct6Y/kYSswcd9Wm.56tX!SM@kLMWc6QToaEH01
     ZKA8472  C2018 05 17):ZW\M8:uO1taf6o91`@^q)NI]wd\XU;57h'+='4Nv;lE.#+N;W2H01
     ZKA8472  C2018 05 17iZIgD`G;bk,+M8HTLwVl#G-)vd;eDdRBJx?CLGpJKDG[!m^HG?/PH01
     ZKA8472  C2018 05 17;skZq0g94A7T][Z_QR/v08w#v$o/Ud]ETd2nyS_-jtg)Ls8(o@GYH01
     ZKA8472  C2018 05 17.34193 12 39 40.70 +03 42 38.8          19.3 GUNEOCPI52
     ZKA8472  C2018 05 17.34231 12 39 40.82 +03 42 28.3          19.7 GUNEOCPI52
     ZKA8472  C2018 05 17.34269 12 39 40.99 +03 42 17.6          19.5 GUNEOCPI52
     ZKA8472  C2018 05 17.34307 12 39 41.16 +03 42 06.4          19.1 GUNEOCPI52
     ZKA8472  C2018 05 17.85226 12 44 07.36 -00 26 12.2          20.1 VSNEOCP033
     ZKA8472  C2018 05 17.85299 12 44 07.70 -00 26 34.0          19.2 VSNEOCP033
     ZKA8472  C2018 05 17.85373 12 44 07.99 -00 26 55.8          19.5 VSNEOCP033
     ZKA8472  C2018 05 17.85446 12 44 08.31 -00 27 17.7          20.5 VSNEOCP033
     ZKA8472  C2018 05 17.85520 12 44 08.63 -00 27 39.9          19.7 VSNEOCP033
     ZKA8472 KC2018 05 17qG^@09+mm*XJWI/m*+w0XilMl3N%^Oc$:Vc-Jmc\c39fwWZ[1ktTL01
     ZKA8472 KC2018 05 17]!J*bYCgMP[$xx`a2SNcdbDZMi.'c(Qm.m'+ZT+eicch#$TVRqtnL01
     ZKA8472 KC2018 05 17;TA^bIdL+o?mcxwU^xG%f%^t[jk0_`dZDM]cSh2L5uM4M\riZsI!L01
     ZKA8472 KC2018 05 17x-O4QAD6'.q5.iBwUredacted;o2+vXXr!lF$GDewX=rVSSe$YT3K87
     ZKA8472 KC2018 05 17wdXFPcBQuT#v#!HHfyZ)q77$Vo8d\:;FLaQi)(]_o8cJ:ej9ytdjK87
     ZKA8472 KC2018 05 17eh4equ=!hHEK*ccj2!-\;rMTK!rf:A'qpbiK*kpUv4@FsM)4y0BJK87
     ZKA8472 KC2018 05 17.89421112 44 28.18 -00 46 58.5                VNEOCPJ95
     ZKA8472 KC2018 05 17.90208712 44 31.54 -00 50 51.9                VNEOCPJ95
     ZKA8472 KC2018 05 17.90926012 44 34.61 -00 54 25.3          19.5 GVNEOCPJ95
     ZKA8472  C2018 05 17.94126 12 44 45.73 -01 10 15.0          20.3 VSNEOCP033
     ZKA8472  C2018 05 17.94199 12 44 46.03 -01 10 37.1          20.1 VSNEOCP033
     ZKA8472  C2018 05 17.94273 12 44 46.39 -01 10 59.5          19.9 VSNEOCP033
     ZKA8472  C2018 05 17.94346 12 44 46.68 -01 11 20.2          20.7 VSNEOCP033
     ZKA8472  C2018 05 17.94420 12 44 46.97 -01 11 42.0          20.0 VSNEOCP033
     ZKA8472  C2018 05 181:fw/]Q*#F%07v@gd8-d2ZGF3WC8h7$?F;KPZN*`N0K?`k-J):4;H01
     ZKA8472  C2018 05 18O6bm_\PY!wtLM.T2o\Bt(ec,H#t,04I$M#:#6;1B(?P:h36bir'RH01
     ZKA8472  C2018 05 18$*/xHpc\?AcB[fYPADL#=#q`j-3%*?]4(56xxL=?5:TUM+vKWyB4H01
     ZKA8472  C2018 05 18J($W+76i0sW9cm7a?/[.#5cPt:URmwfEOe6@.Gme`V2wr+,S9/BVH01
     ZKA8472  C2018 05 18.19891 12 47 03.86 -03 17 49.8          19.3 GUNEOCPI52
     ZKA8472  C2018 05 18.19998 12 47 04.28 -03 18 22.5          19.3 GUNEOCPI52
     ZKA8472  C2018 05 18.20036 12 47 04.46 -03 18 33.8          19.1 GUNEOCPI52
     ZKA8472  C2018 05 18.20074 12 47 04.63 -03 18 45.5          19.3 GUNEOCPI52
     ZKA8472 KC2018 05 189=pnodF5\LZ1kqQyrEX!PUM[t%#*s@!AseeiegXGm92^dd7\cUn_E23
     ZKA8472 KC2018 05 18#l@?LnyOyroTm8?[q@Nd,g(J$342,MiRn/$bTo4#I'pBbA7+IXgsE23
     ZKA8472 KC2018 05 186+a$qmR`EI#eW2y5['_XCt41ClR=)7X-bK_J_LMV7_BkNWL35o90E23
     ZKA8472 KC2018 05 18*$SPVJ3G(A/-Z1Wt7_*OxLtL)F9?;,Oy0\P@-=g5^PCsaTGymQ(k595
     ZKA8472 KC2018 05 18Wq`0Y=bqE!RAAWq*3MQ2@\nf9p]SrngidO:Et;E4gk8@uKG7h+T/595
     ZKA8472 KC2018 05 18Uk'_)q$Y1I-'H4;i6`\05-X;EW*.@`y\g9f8qy$t,+B@f0`Huu/-K63
     ZKA8472 KC2018 05 18jT-!9;Ayn#f-CYXB]ROhuIh;4(c/#rG'#H@rCsfF9NDr,fU_;w4?K63
     ZKA8472 KC2018 05 18?OSGlb$XKy[MsSpl?q`G;XT'hmwe[+0oRV11ti\tJdm#Z:vNEOCPK63
     ZKA8472 KC2018 05 18.90319 12 53 17.88 -09 17 18.5                VNEOCPJ95
     ZKA8472 KC2018 05 18.94042 12 53 35.17 -09 36 22.1          19.1 GVNEOCPJ95
     ZKA8472  C2018 05 19.17556 12 55 50.73 -11 36 01.3          19.1 GUNEOCPI52
     ZKA8472  C2018 05 19.17733 12 55 51.52 -11 36 55.4          19.0 GUNEOCPI52
     ZKA8472  C2018 05 19.17873 12 55 52.13 -11 37 38.6          19.1 GUNEOCPI52

Station data:
(033) Karl Schwarzschild Observatory, Tautenburg  (N50.980140 E11.711240)
   Germany. 1.3-m Schmidt.
(595) Farra d'Isonzo  (N45.915734 E13.525780)  Italy.  Observers L.
   Bittesini, F. Fabris, E. Pettarin, F. Piani. Measurer E. Pettarin. 0.30-m
   f/4.5 reflector + CCD.
(E23) Arcadia  (S33.621199 E151.071190)  Australia/NSW.
(G96) Mt. Lemmon Survey  (N32.442754 W110.788720)  US/Arizona.  Observers E.
   J. Christensen, A. R. Gibbs, A. D. Grauer, R. E. Hill, J. A. Johnson, R.
   A. Kowalski, S. M. Larson, F. C. Shelly. 1.5-m reflector + CCD.
(H01) Magdalena Ridge Observatory, Socorro  (N33.985151 W107.189200)  US/New
   Mexico.  Observers W. H. Ryan, E. V. Ryan. Measurer W. H. Ryan. 2.4-m
   f/8.9 reflector + CCD.
(I52) Steward Observatory, Mt. Lemmon Station  (N32.442547 W110.788920)
   US/Arizona.
(J95) Great Shefford  (N51.474970 W1.447000)  UK.  Observer P. Birtwhistle.
   0.40-m f/6.0 Schmidt-Cassegrain + CCD.
(K63) G. Pascoli Observatory, Castelvecchio Pascoli  (N44.082410 E10.462000)
   Italy.
(K87) Dettelbach Vineyard Observatory  (N49.807693 E10.170110)  Germany.
(L01) Višnjan Observatory, Tičan  (N45.290900 E13.749300)  Croatia.

Orbital elements:  ZKA8472
   Perihelion 2018 May 4.754530 +/- 0.00379 TT = 18:06:31 (JD 2458243.254530)
Epoch 2018 May 19.0 TT = JDT 2458257.5   Earth MOID: 0.0200   AutoNEOCP
M   7.20239 +/- 0.006               (J2000 ecliptic)
n   0.50559164 +/- 0.00032          Peri.  164.96084 +/- 0.0032
a   1.56052043 +/- 0.000658         Node    56.12398 +/- 0.0006
e   0.3444234 +/- 0.00027           Incl.   10.07700 +/- 0.0056
P   1.95/712.02d           H 25.7   G  0.15   U  7.3  
q 1.02304056 +/- 1.08e-5    Q 2.09800030 +/- 0.0013
From 52 observations 2018 May 17-19 (46.7 hr); mean residual 0".34
Residuals in arcseconds: 
180517 G96  .35-  .98-    180517 L01  .18+  .49+    180518 I52  .42-  .02-    
180517 G96  .03-  .00     180517 L01  .05-  .04+    180518 I52  .05-  .15+    
180517 G96  .21+  .30+    180517 K87  .38-  .14+    180518 I52  .17+  .09-    
180517 G96  .79+  .01-    180517 K87  .31-  .14-    180518 E23  .20+  .15-    
180517 H01  .10-  .06+    180517 K87  .57+  .40+    180518 E23  .11+  .25-    
180517 H01  .10-  .23+    180517 J95  .01+  .32-    180518 E23  .10+  .18-    
180517 H01  .03+  .07+    180517 J95  .03-  .23+    180518 595  .59+  .29-    
180517 H01  .07-  .17+    180517 J95  .01+  .02-    180518 595  .83-  .20-    
180517 I52  .36+  .09-    180517 033  .24+  .01+    180518 K63  1.2-  .89+    
180517 I52  .28-  .29+    180517 033  .10-  .37-    180518 K63  .54-  .20+    
180517 I52  .17-  .48+    180517 033  .40+  .74-    180518 K63  .96-  .02+    
180517 I52  .07-  .17+    180517 033  .09-  .28+    180518 J95  .45+  .04-    
180517 033  .26-  .04-    180517 033  .65-  .51+    180518 J95  .13+  .16-    
180517 033  .19+  .21-    180518 H01  .05-  .21+    180519 I52  .03-  .36-    
180517 033  .16-  .09-    180518 H01  .13-  .04+    180519 I52  .06+  .10+    
180517 033  .01-  .36-    180518 H01  .06-  .01+    180519 I52  .08-  .05+    
180517 033  .08+  .63-    180518 H01  .13-  .03+    
180517 L01  .12-  .34+    180518 I52  .16-  .40+    

Ephemerides (geocentric):
Date (UTC) HH   RA              Dec         delta   r     elong  mag " sig PA
---- -- -- --  ------------   ------------  ------ ------ -----  --- ---- ---
2018 05 19 19  13 01 38.731   -16 46 59.77  .02823 1.0339 141.2 19.6  .09   5
2018 05 19 20  13 02 02.916   -17 08 06.15  .02825 1.0340 141.3 19.6  .09   6
2018 05 19 21  13 02 27.170   -17 29 10.65  .02827 1.0341 141.4 19.6  .09   6
2018 05 19 22  13 02 51.495   -17 50 13.14  .02829 1.0341 141.5 19.5  .08   7
2018 05 19 23  13 03 15.889   -18 11 13.55  .02831 1.0342 141.7 19.5  .08   8
2018 05 20 00  13 03 40.352   -18 32 11.75  .02834 1.0342 141.8 19.5  .08   8
2018 05 20 01  13 04 04.886   -18 53 07.65  .02836 1.0343 141.9 19.5  .07   9
2018 05 20 02  13 04 29.490   -19 14 01.14  .02839 1.0344 142.0 19.5  .07  10
2018 05 20 03  13 04 54.164   -19 34 52.14  .02841 1.0344 142.1 19.5  .07  12
2018 05 20 04  13 05 18.908   -19 55 40.53  .02844 1.0345 142.2 19.5  .06  13
2018 05 20 05  13 05 43.722   -20 16 26.23  .02847 1.0345 142.3 19.5  .06  15
2018 05 20 06  13 06 08.607   -20 37 09.13  .02850 1.0346 142.4 19.5  .05  17
2018 05 20 07  13 06 33.562   -20 57 49.15  .02853 1.0347 142.5 19.5  .05  19
2018 05 20 08  13 06 58.587   -21 18 26.18  .02857 1.0347 142.6 19.5  .05  22
2018 05 20 09  13 07 23.683   -21 39 00.14  .02860 1.0348 142.7 19.5  .04  26
2018 05 20 10  13 07 48.850   -21 59 30.93  .02863 1.0348 142.8 19.5  .04  30
2018 05 20 11  13 08 14.087   -22 19 58.47  .02867 1.0349 142.8 19.5  .04  35
2018 05 20 12  13 08 39.395   -22 40 22.66  .02871 1.0350 142.9 19.5  .03  42
2018 05 20 13  13 09 04.774   -23 00 43.43  .02875 1.0350 143.0 19.5  .03  50
2018 05 20 14  13 09 30.224   -23 21 00.68  .02878 1.0351 143.1 19.5  .03  60
2018 05 20 15  13 09 55.744   -23 41 14.33  .02883 1.0352 143.2 19.5  .03  71
2018 05 20 16  13 10 21.336   -24 01 24.30  .02887 1.0352 143.2 19.5  .03  82
2018 05 20 17  13 10 46.999   -24 21 30.51  .02891 1.0353 143.3 19.6  .03  93
2018 05 20 18  13 11 12.733   -24 41 32.88  .02895 1.0354 143.4 19.6  .03 103
2018 05 20 19  13 11 38.537   -25 01 31.33  .02900 1.0354 143.4 19.6  .03 112
2018 05 20 20  13 12 04.414   -25 21 25.78  .02904 1.0355 143.5 19.6  .04 119
2018 05 20 21  13 12 30.361   -25 41 16.16  .02909 1.0355 143.6 19.6  .04 125
2018 05 20 22  13 12 56.380   -26 01 02.40  .02914 1.0356 143.6 19.6  .05 130
2018 05 20 23  13 13 22.470   -26 20 44.42  .02919 1.0357 143.7 19.6  .05 133
2018 05 21 00  13 13 48.631   -26 40 22.16  .02924 1.0357 143.7 19.6  .06 137
2018 05 21 01  13 14 14.864   -26 59 55.55  .02929 1.0358 143.8 19.6  .06 139
2018 05 21 02  13 14 41.168   -27 19 24.52  .02934 1.0359 143.8 19.6  .07 141
2018 05 21 03  13 15 07.544   -27 38 49.00  .02939 1.0359 143.9 19.6  .07 143
2018 05 21 04  13 15 33.991   -27 58 08.94  .02945 1.0360 143.9 19.6  .08 145
2018 05 21 05  13 16 00.510   -28 17 24.26  .02950 1.0361 144.0 19.6  .08 146
2018 05 21 06  13 16 27.100   -28 36 34.92  .02956 1.0361 144.0 19.6  .09 147
2018 05 21 07  13 16 53.762   -28 55 40.86  .02961 1.0362 144.0 19.6  .10 148
2018 05 21 08  13 17 20.495   -29 14 42.01  .02967 1.0363 144.1 19.6  .10 149
2018 05 21 09  13 17 47.300   -29 33 38.32  .02973 1.0363 144.1 19.6  .11 150
2018 05 21 10  13 18 14.177   -29 52 29.74  .02979 1.0364 144.1 19.6  .11 151
2018 05 21 11  13 18 41.125   -30 11 16.22  .02985 1.0364 144.1 19.6  .12 151
2018 05 21 12  13 19 08.145   -30 29 57.71  .02992 1.0365 144.2 19.6  .13 152
2018 05 21 13  13 19 35.237   -30 48 34.16  .02998 1.0366 144.2 19.6  .13 152
2018 05 21 14  13 20 02.400   -31 07 05.52  .03004 1.0366 144.2 19.6  .14 153
2018 05 21 15  13 20 29.635   -31 25 31.75  .03011 1.0367 144.2 19.6  .15 153
2018 05 21 16  13 20 56.942   -31 43 52.80  .03017 1.0368 144.2 19.6  .15 153
2018 05 21 17  13 21 24.320   -32 02 08.64  .03024 1.0368 144.3 19.6  .16 154
2018 05 21 18  13 21 51.770   -32 20 19.22  .03031 1.0369 144.3 19.6  .17 154